Location: Ç?ral? Körfezi
(36.3984°N, 30.4829°E)
Time: 16:19:25
(UTC+00:00)

Cosmos 2333 Rocket - Visible Passes

Search period start: 05 November 2024 00:00
Search period end: 15 November 2024 00:00
Orbit: 841 x 861 km, 70.8° (Epoch: 05 November)

Date Brightness Start Highest point End Pass type
(mag) Time Alt. Az. Time Alt. Az. Time Alt. Az.
05 Nov 4.3 03:47:57 10° SSE 03:53:01 34° ESE 03:58:05 10° NE visible
05 Nov 6.0 16:17:38 10° W 16:18:00 10° W 16:18:22 10° W visible
06 Nov 4.2 03:35:40 10° SSE 03:40:44 34° ESE 03:45:48 10° NE visible
06 Nov 5.9 16:05:20 10° W 16:05:43 10° W 16:06:05 10° W visible
07 Nov 4.1 03:23:23 10° SSE 03:28:27 34° ESE 03:33:31 10° NE visible
07 Nov 5.9 15:53:04 10° W 15:53:26 10° W 15:53:48 10° W visible
08 Nov 4.1 03:11:06 10° SSE 03:16:10 34° ESE 03:21:13 10° NE visible
08 Nov 5.9 15:40:47 10° W 15:41:09 10° W 15:41:31 10° W visible
09 Nov 4.0 02:58:49 10° SSE 03:03:53 34° ESE 03:08:56 10° NE visible
09 Nov 5.8 15:28:30 10° W 15:28:52 10° W 15:29:14 10° W visible
10 Nov 3.9 02:46:31 10° SSE 02:51:36 34° ESE 02:56:39 10° NE visible
11 Nov 3.9 02:34:15 10° SSE 02:39:19 34° ESE 02:44:22 10° NE visible
12 Nov 3.8 02:21:57 10° SSE 02:27:02 34° ESE 02:32:04 10° NE visible
12 Nov 3.0 04:06:15 10° WSW 04:11:14 31° WNW 04:16:14 10° N visible
13 Nov 3.8 02:09:41 10° SSE 02:14:44 34° ESE 02:19:47 10° NE visible
13 Nov 2.9 03:53:58 10° WSW 03:58:57 31° WNW 04:03:57 10° N visible
14 Nov 3.7 01:57:23 10° SSE 02:02:27 34° ESE 02:07:31 10° NE visible
14 Nov 2.9 03:41:42 10° WSW 03:46:40 31° WNW 03:51:39 10° N visible
